Location: Cotdoussan
(43.0366°N, 0.0068°E)
Time: 21:05:15
(UTC+00:00)

ISS - Visible Passes

Search period start: 19 January 2026 00:00
Search period end: 29 January 2026 00:00
Orbit: 413 x 424 km, 51.6° (Epoch: 19 January)

Date Brightness Start Highest point End Pass type
(mag) Time Alt. Az. Time Alt. Az. Time Alt. Az.
19 Jan -2.1 17:38:34 10° WNW 17:41:23 25° NNW 17:44:15 10° NE visible
19 Jan -1.0 19:16:31 10° NW 19:17:13 13° NNW 19:17:13 13° NNW visible
20 Jan -1.8 18:28:29 10° NW 18:30:55 18° N 18:31:19 18° N visible
21 Jan -1.8 17:40:20 10° NW 17:42:50 19° N 17:45:20 10° NE visible
21 Jan -1.0 19:17:40 10° NW 19:18:22 14° NNW 19:18:22 14° NNW visible
22 Jan -2.0 18:29:46 10° NW 18:32:20 20° N 18:32:27 20° NNE visible
23 Jan -1.9 17:41:45 10° NW 17:44:13 19° N 17:46:35 10° NE visible
23 Jan -1.3 19:18:30 10° NW 19:19:32 17° NW 19:19:32 17° NW visible
24 Jan -2.6 18:30:38 10° NW 18:33:35 28° NNE 18:33:42 28° NNE visible
25 Jan -2.3 17:42:43 10° NW 17:45:27 23° NNE 17:47:55 12° ENE visible
25 Jan -1.8 19:19:15 10° NW 19:20:52 26° NW 19:20:52 26° NW visible
26 Jan -3.6 18:31:18 10° NW 18:34:35 52° NNE 18:35:11 44° ENE visible
27 Jan -3.0 17:43:21 10° NW 17:46:29 36° NNE 17:49:37 10° E visible
27 Jan -2.0 19:20:09 10° WNW 19:22:36 32° WSW 19:22:36 32° WSW visible
28 Jan -3.4 18:31:58 10° WNW 18:35:17 62° SW 18:37:13 22° SE visible
